This is the latest recevied weather packets stored in our database for station/object N2PPN. If no packets are shown the sender has not sent any weather packets the latest 10 day(s).
| Time | Temp. | Humidity | Pressure | Rain* | Wind** | Luminosity | Snow |
|---|---|---|---|---|---|---|---|
| 1777929990 | 16.11° C | 66% | 1013.7 hPa | 0 mm | - | 272 W/m² | - |
| 1777929687 | 15.56° C | 67% | 1013.7 hPa | 0 mm | - | 288 W/m² | - |
| 1777929384 | 16.11° C | 67% | 1013.6 hPa | 0 mm | - | 262 W/m² | - |
| 1777929080 | 16.11° C | 67% | 1013.6 hPa | 0 mm | - | 314 W/m² | - |
| 1777928778 | 16.11° C | 66% | 1013.6 hPa | 0 mm | - | 330 W/m² | - |
| 1777928474 | 16.67° C | 65% | 1013.7 hPa | 0 mm | - | 329 W/m² | - |
| 1777928172 | 16.67° C | 64% | 1013.7 hPa | 0 mm | - | 353 W/m² | - |
| 1777927870 | 16.67° C | 62% | 1013.5 hPa | 0 mm | - | 371 W/m² | - |
| 1777927568 | 16.67° C | 63% | 1013.6 hPa | 0 mm | - | 387 W/m² | - |
| 1777927267 | 16.67° C | 63% | 1013.5 hPa | 0 mm | - | 399 W/m² | - |
| 1777926965 | 16.67° C | 63% | 1013.5 hPa | 0 mm | - | 411 W/m² | - |
| 1777926662 | 16.67° C | 63% | 1013.6 hPa | 0 mm | - | 428 W/m² | - |
| 1777926357 | 16.67° C | 63% | 1013.6 hPa | 0 mm | - | 438 W/m² | - |
| 1777926054 | 17.22° C | 63% | 1013.6 hPa | 0 mm | - | 449 W/m² | - |
| 1777925751 | 16.67° C | 64% | 1013.7 hPa | 0 mm | - | 465 W/m² | - |
| 1777925449 | 16.67° C | 64% | 1013.5 hPa | 0 mm | - | 476 W/m² | - |
| 1777925144 | 17.22° C | 63% | 1013.7 hPa | 0 mm | - | 491 W/m² | - |
| 1777924842 | 17.22° C | 62% | 1013.8 hPa | 0 mm | - | 504 W/m² | - |
| 1777924538 | 16.67° C | 64% | 1013.8 hPa | 0 mm | - | 521 W/m² | - |
| 1777924235 | 17.22° C | 63% | 1013.8 hPa | 0 mm | - | 523 W/m² | - |
| 1777923931 | 16.67° C | 63% | 1013.9 hPa | 0 mm | - | 536 W/m² | - |
| 1777923626 | 17.22° C | 64% | 1013.9 hPa | 0 mm | - | 550 W/m² | - |
| 1777923323 | 17.22° C | 64% | 1013.9 hPa | 0 mm | - | 559 W/m² | - |
| 1777923022 | 17.22° C | 63% | 1014.1 hPa | 0 mm | - | 572 W/m² | - |
| 1777922720 | 17.22° C | 62% | 1014.1 hPa | 0 mm | - | 582 W/m² | - |
* Rain latest hour (hover to see other rain measurements)
** Current wind speed in m/s (hover to see current wind gust speed)